QIANFAN-61

Satellite information

Favourite Embed

Satellite Type and Status

PAYLOADIN ORBIT

Key statistics

Satellite QIANFAN-61 at a glance.

Uptime

325

Days in orbit

Revolutions

≈ 13.5

Per day

Orbit

LEO

Low Earth Orbit

Inclination

89.0

Latest

Satellite identification and parameters

Extended collection of information and parameters for QIANFAN-61.

Object identification

Identified? True

Debris? False

Object name: QIANFAN-61

International designator: 2025-016G

Object number (NORAD): 62791

Object ID (CCSDS): 62791

Country: PEOPLES REPUBLIC OF CHINA (PRC)

Current information (Y/N): Y

RCS size: LARGE

Orbital parameters

Period: 106.589 minutes

Inclination: 88.9826 deg

SMA: 7446.79 km

Apoapsis: 1078.919 km

Periapsis: 1058.39 km

RAAN: 103.1477 deg

Eccentricy: 0.00137838

Argument of periapsis: 346.0748 deg

Mean anomaly: 14.0022 deg

Mean motion: 13.5098065 rev/day

Mean motion (dot): 0.00000175 rev/day2

B* drag term: 0.00025189465 1/REarth

Two-line elements (TLE)

Creation date: Dec. 14, 2025, 3:07 a.m.

Reference frame: TEME

Reference center: EARTH

Epoch: Dec. 13, 2025, 3:03 p.m. UTC

TLE line 0: 0 QIANFAN-61

TLE line 1: 1 62791U 25016G 25347.62752107 .00000175 00000-0 25189-3 0 9991

TLE line 2: 2 62791 88.9826 103.1477 0013784 346.0748 14.0022 13.50980650 47362

Live tracking on map

Real-time ground track for satellite QIANFAN-61.

In-orbit conjunctions

There are no conjunctions computed for QIANFAN-61, at the moment. Check back to stay up to date, as we update our databases every day.

Go to all conjunctions

Associated space launch

18 Low Earth Orbit communication satellites with Ku, Q and V band payloads for the G60 constellation operated by Shanghai Spacecom Satellite Technology (SSST) with funding backed by the Shanghai local government. Initial constellation will consist of 1296 satellites by 2027 with long term plans to expand it to 12000 satellites.

QIANFAN-61 was lifted into orbit during the mission ‘Long March 6A | G60 Polar Group 06’, on board a Long March 6A space rocket.

The launch took place on Jan. 23, 2025, 5:15 a.m. from Launch Complex 9A.

For more information about the launch, click the button.

Launch to space Long March 6A | G60 Polar Group 06
Long March 6A | G60 Polar Group 06

Agency: N/A

Status: Launch Successful

Launch date: Jan. 23, 2025, 5:15 a.m. UTC

Rocket: Long March 6A

Launch pad: Launch Complex 9A

Location: Taiyuan Satellite Launch Center, People's Republic of China

...

Latest news about this satellite

News about space launch
China launches fourth batch of Thousand Sails megaconstellation satellites

HELSINKI — China launched the fourth batch of 18 satellites for the Thousand Sails megaconstellation early Thursday using a Long March 6A rocket. The Long March 6A lifted off at […] The post China launches fourth batch of Thousand Sails megaconstellation...


Newsletter sign-up

Weekly statistics, charts and insights to help you stay on top of the space industry.